FW2156 Weather Reports


time (UTC)temp
C
wind
direction
speed
KPH
gust
KPH
rain 1hr
cm
rain 24hr
cm
rain mn
cm
humidity
%
barometer
mb
20210518210343 11 268 24.1 32.2 0.00 0.00 0.00 38 1002.0
20210518205840 12 293 29.0 35.4 0.00 0.00 0.00 41 1002.4
20210518205337 13 224 30.6 40.2 0.00 0.00 0.00 39 1002.0
20210518204816 13 0 30.6 40.2 0.00 0.00 0.00 41 1001.7
20210518204317 14 296 17.7 19.3 0.00 0.00 0.00 42 1001.7
20210518203813 15 299 20.9 32.2 0.00 0.00 0.00 40 1001.7
20210518203311 15 329 27.4 40.2 0.00 0.00 0.00 33 1001.7
20210518202813 15 187 19.3 24.1 0.00 0.00 0.00 26 1001.4
20210518202315 15 244 11.3 16.1 0.00 0.00 0.00 23 1001.4
20210518201811 14 188 19.3 24.1 0.00 0.00 0.00 26 1001.0
20210518201317 13 167 9.7 16.1 0.00 0.00 0.00 27 1000.7
20210518200815 13 243 12.9 19.3 0.00 0.00 0.00 26 1000.7
20210518200313 13 103 9.7 16.1 0.00 0.00 0.00 26 1001.0
20210518195815 13 258 24.1 32.2 0.00 0.00 0.00 28 1000.7
20210518195314 13 253 30.6 40.2 0.00 0.00 0.00 28 1000.7
20210518194813 13 217 27.4 35.4 0.00 0.00 0.00 30 1000.7
20210518194313 13 226 24.1 27.4 0.00 0.00 0.00 29 1000.7
20210518193817 13 196 17.7 24.1 0.00 0.00 0.00 28 1001.0
20210518193315 13 245 22.5 27.4 0.00 0.00 0.00 28 1001.0
20210518192812 13 161 6.4 8.0 0.00 0.00 0.00 32 1001.4
20210518192317 13 233 17.7 24.1 0.00 0.00 0.00 29 1001.4
20210518191820 13 219 11.3 19.3 0.00 0.00 0.00 31 1001.4
20210518191314 13 200 17.7 27.4 0.00 0.00 0.00 30 1001.4
20210518190811 13 222 33.8 40.2 0.00 0.00 0.00 30 1001.0
20210518190314 13 250 24.1 27.4 0.00 0.00 0.00 28 1001.0
20210518185814 13 249 24.1 35.4 0.00 0.00 0.00 29 1001.4
20210518185315 13 270 30.6 40.2 0.00 0.00 0.00 31 1001.0
20210518184812 13 250 35.4 40.2 0.00 0.00 0.00 28 1000.7
20210518184312 14 238 22.5 27.4 0.00 0.00 0.00 30 1001.0
20210518183816 15 257 29.0 40.2 0.00 0.00 0.00 32 1001.0
20210518183314 15 239 27.4 35.4 0.00 0.00 0.00 32 1000.7
20210518182811 15 223 20.9 24.1 0.00 0.00 0.00 25 1000.3
20210518182315 15 231 27.4 32.2 0.00 0.00 0.00 26 1000.3
20210518181812 15 240 22.5 27.4 0.00 0.00 0.00 25 1000.3
20210518181314 14 275 22.5 35.4 0.00 0.00 0.00 26 1000.3
20210518180845 14 191 16.1 24.1 0.00 0.00 0.00 25 1000.3
20210518180314 14 225 30.6 40.2 0.00 0.00 0.00 24 1000.3
20210518175812 14 258 9.7 11.3 0.00 0.00 0.00 32 1000.3
20210518175316 14 245 32.2 40.2 0.00 0.00 0.00 28 1000.3
20210518174813 14 214 24.1 27.4 0.00 0.00 0.00 26 1000.3
20210518174315 14 238 32.2 35.4 0.00 0.00 0.00 25 1000.3
20210518173814 14 325 20.9 27.4 0.00 0.00 0.00 28 1000.3
20210518173317 13 232 24.1 27.4 0.00 0.00 0.00 33 1000.3
20210518172823 13 282 22.5 27.4 0.00 0.00 0.00 34 1000.3
20210518172316 13 300 6.4 8.0 0.00 0.00 0.00 37 1000.3
20210518171816 14 270 27.4 35.4 0.00 0.00 0.00 36 1000.0
20210518171312 14 295 14.5 19.3 0.00 0.00 0.00 35 1000.3
20210518170823 14 271 38.6 48.3 0.00 0.00 0.00 36 1000.0
20210518170313 15 256 17.7 24.1 0.00 0.00 0.00 37 1000.0
20210518165817 15 292 12.9 16.1 0.00 0.00 0.00 32 1000.0
20210518165316 15 279 20.9 27.4 0.00 0.00 0.00 34 1000.0
20210518164819 15 294 24.1 27.4 0.00 0.00 0.00 33 1000.0
20210518164314 15 247 27.4 32.2 0.00 0.00 0.00 33 1000.0
20210518163812 15 268 11.3 16.1 0.00 0.00 0.00 35 1000.0
20210518163314 16 235 17.7 24.1 0.00 0.00 0.00 34 1000.0
20210518162812 16 315 8.0 11.3 0.00 0.00 0.00 36 999.7
20210518162315 16 219 20.9 27.4 0.00 0.00 0.00 36 1000.0
20210518161815 16 243 19.3 24.1 0.00 0.00 0.00 34 1000.0
20210518161313 16 244 9.7 11.3 0.00 0.00 0.00 29 999.7
20210518160813 16 163 8.0 11.3 0.00 0.00 0.00 28 999.7
20210518160313 16 240 11.3 16.1 0.00 0.00 0.00 28 999.7
20210518155813 16 99 0.0 4.8 0.00 0.00 0.00 31 999.7
20210518155327 15 155 19.3 24.1 0.00 0.00 0.00 30 999.7
20210518154811 15 167 4.8 8.0 0.00 0.00 0.00 37 999.7
20210518154321 15 88 12.9 16.1 0.00 0.00 0.00 39 999.7
20210518153811 14 103 9.7 16.1 0.00 0.00 0.00 44 1000.0
20210518153314 13 248 0.0 0.0 0.00 0.00 0.00 48 1000.0
20210518152813 13 164 9.7 11.3 0.00 0.00 0.00 51 1000.0
20210518152314 13 87 3.2 4.8 0.00 0.00 0.00 53 1000.3
20210518151812 12 91 12.9 16.1 0.00 0.00 0.00 54 1000.3
20210518151312 12 122 4.8 8.0 0.00 0.00 0.00 56 1000.3
20210518150814 12 78 8.0 11.3 0.00 0.00 0.00 57 1000.7
20210518150312 12 110 16.1 19.3 0.00 0.00 0.00 55 1000.7
20210518145813 11 188 1.6 4.8 0.00 0.00 0.00 58 1000.7
20210518145315 11 87 9.7 16.1 0.00 0.00 0.00 60 1000.7
20210518144814 11 137 8.0 11.3 0.00 0.00 0.00 61 1001.0
20210518144316 11 129 9.7 11.3 0.00 0.00 0.00 61 1001.0
20210518143814 11 85 9.7 11.3 0.00 0.00 0.00 62 1001.0
20210518143315 11 130 6.4 8.0 0.00 0.00 0.00 63 1001.0
20210518142819 11 77 11.3 16.1 0.00 0.00 0.00 63 1001.0
20210518142317 11 102 20.9 27.4 0.00 0.00 0.00 63 1001.4
20210518141825 11 76 11.3 16.1 0.00 0.00 0.00 64 1001.0
20210518141316 10 78 3.2 4.8 0.00 0.00 0.00 64 1001.4
20210518140813 10 95 11.3 16.1 0.00 0.00 0.00 64 1001.4
20210518140314 10 144 8.0 11.3 0.00 0.00 0.00 65 1001.4
20210518135812 10 130 11.3 16.1 0.00 0.00 0.00 65 1001.7
20210518135315 10 80 14.5 16.1 0.00 0.00 0.00 66 1001.4
20210518134812 10 84 11.3 16.1 0.00 0.00 0.00 65 1001.4
20210518134313 10 150 11.3 16.1 0.00 0.00 0.00 65 1001.4
20210518133811 10 156 8.0 11.3 0.00 0.00 0.00 65 1001.7
20210518133312 10 94 0.0 0.0 0.00 0.00 0.00 67 1001.7
20210518132821 10 97 9.7 11.3 0.00 0.00 0.00 67 1001.7
20210518132315 10 81 9.7 11.3 0.00 0.00 0.00 68 1001.7
20210518131815 10 126 3.2 4.8 0.00 0.00 0.00 68 1001.7
20210518131314 10 136 3.2 4.8 0.00 0.00 0.00 68 1001.7
20210518130813 9 96 4.8 8.0 0.00 0.00 0.00 68 1001.7
20210518130316 9 121 1.6 4.8 0.00 0.00 0.00 68 1002.0
20210518125814 9 46 4.8 8.0 0.00 0.00 0.00 69 1002.0
20210518125315 9 83 0.0 0.0 0.00 0.00 0.00 69 1002.4
20210518124813 9 109 0.0 0.0 0.00 0.00 0.00 69 1002.4
20210518124311 9 116 0.0 0.0 0.00 0.00 0.00 69 1002.4
20210518123811 9 93 0.0 0.0 0.00 0.00 0.00 69 1002.7
20210518123319 9 70 0.0 0.0 0.00 0.00 0.00 69 1002.7
20210518122814 9 86 0.0 0.0 0.00 0.00 0.00 69 1003.0
20210518122321 9 218 0.0 0.0 0.00 0.00 0.00 70 1002.7
20210518121816 9 82 0.0 0.0 0.00 0.00 0.00 70 1003.0
20210518121313 9 234 0.0 0.0 0.00 0.00 0.00 70 1003.0
20210518120814 9 250 0.0 0.0 0.00 0.00 0.00 70 1003.0
20210518120313 9 239 0.0 0.0 0.00 0.00 0.00 70 1003.0
20210518115816 9 82 0.0 0.0 0.00 0.00 0.00 70 1002.7
20210518115318 9 355 0.0 0.0 0.00 0.00 0.00 70 1002.7
20210518114815 9 259 0.0 0.0 0.00 0.00 0.00 69 1002.7
20210518114314 9 84 1.6 4.8 0.00 0.00 0.00 69 1003.0
20210518113819 9 282 0.0 0.0 0.00 0.00 0.00 69 1002.7
20210518113313 9 274 0.0 0.0 0.00 0.00 0.00 69 1003.0
20210518112824 9 191 0.0 0.0 0.00 0.00 0.00 69 1003.0
20210518112313 9 245 0.0 0.0 0.00 0.00 0.00 69 1003.0
20210518111813 9 118 0.0 0.0 0.00 0.00 0.00 69 1003.0
20210518111314 9 245 0.0 0.0 0.00 0.00 0.00 69 1003.4
20210518110810 9 317 0.0 0.0 0.00 0.00 0.00 69 1003.0
20210518110320 9 74 0.0 0.0 0.00 0.00 0.00 68 1003.0
20210518105813 9 269 0.0 0.0 0.00 0.00 0.00 68 1003.4
20210518105314 9 284 0.0 0.0 0.00 0.00 0.00 69 1003.4
20210518104814 9 268 0.0 0.0 0.00 0.00 0.00 68 1003.4
20210518104312 9 283 0.0 0.0 0.00 0.00 0.00 68 1003.4
20210518103811 9 264 0.0 0.0 0.00 0.00 0.00 68 1003.0
20210518103317 9 294 0.0 0.0 0.00 0.00 0.00 68 1003.4
20210518102812 9 228 0.0 0.0 0.00 0.00 0.00 69 1003.4
20210518102317 9 115 0.0 0.0 0.00 0.00 0.00 69 1003.4
20210518101812 9 208 0.0 0.0 0.00 0.00 0.00 69 1003.0
20210518101314 9 278 0.0 0.0 0.00 0.00 0.00 69 1003.0
20210518100814 9 322 0.0 0.0 0.00 0.00 0.00 69 1003.0
20210518100315 9 317 0.0 0.0 0.00 0.00 0.00 69 1003.0
20210518095811 9 313 0.0 0.0 0.00 0.00 0.00 69 1003.4
20210518095316 9 318 0.0 0.0 0.00 0.00 0.00 69 1003.0
20210518094811 9 279 0.0 0.0 0.00 0.00 0.00 69 1003.0
20210518094316 9 332 0.0 0.0 0.00 0.00 0.00 69 1003.4
20210518093812 9 310 1.6 4.8 0.00 0.00 0.00 68 1003.0
20210518093313 9 308 0.0 0.0 0.00 0.00 0.00 68 1003.0
20210518092813 9 311 0.0 0.0 0.00 0.00 0.00 68 1003.0
20210518092317 9 304 0.0 0.0 0.00 0.00 0.00 68 1003.0
20210518091811 9 291 0.0 0.0 0.00 0.00 0.00 67 1003.7
20210518091313 10 297 0.0 0.0 0.00 0.00 0.00 67 1003.4
20210518090812 10 292 0.0 0.0 0.00 0.00 0.00 67 1003.4
20210518090310 10 307 0.0 0.0 0.00 0.00 0.00 66 1003.7
20210518085815 10 3 0.0 0.0 0.00 0.00 0.00 66 1003.7
20210518085312 10 337 0.0 0.0 0.00 0.00 0.00 65 1003.7
20210518084811 10 301 0.0 0.0 0.00 0.00 0.00 65 1004.1
20210518084310 10 290 0.0 0.0 0.00 0.00 0.00 64 1004.1
20210518083815 10 310 3.2 4.8 0.00 0.00 0.00 64 1003.7
20210518083242 10 274 0.0 0.0 0.00 0.00 0.00 64 1004.1
20210518082814 10 337 4.8 8.0 0.00 0.00 0.00 64 1004.1
20210518082312 10 316 0.0 0.0 0.00 0.00 0.00 64 1004.1
20210518081813 10 243 0.0 0.0 0.00 0.00 0.00 63 1003.7
20210518081314 10 347 0.0 4.8 0.00 0.00 0.00 63 1003.7
20210518080815 10 253 0.0 0.0 0.00 0.00 0.00 63 1003.7
20210518080315 10 78 1.6 4.8 0.00 0.00 0.00 63 1003.7
20210518075814 10 13 3.2 8.0 0.00 0.00 0.00 63 1003.7
20210518075312 10 345 0.0 0.0 0.00 0.00 0.00 63 1003.4
20210518074811 10 22 1.6 4.8 0.00 0.00 0.00 63 1003.4
20210518074314 11 353 0.0 0.0 0.00 0.00 0.00 63 1004.1
20210518073811 11 313 6.4 8.0 0.00 0.00 0.00 63 1004.4
20210518073312 11 308 9.7 11.3 0.00 0.00 0.00 63 1004.4
20210518072820 11 20 6.4 8.0 0.00 0.00 0.00 63 1004.4
20210518072316 11 326 0.0 0.0 0.00 0.00 0.00 63 1004.4
20210518071811 11 307 0.0 0.0 0.00 0.00 0.00 63 1004.7
20210518071314 11 326 0.0 0.0 0.00 0.00 0.00 62 1004.4
20210518070810 11 327 8.0 8.0 0.00 0.00 0.00 62 1004.7
20210518070315 11 251 0.0 0.0 0.00 0.00 0.00 62 1004.7
20210518065813 11 286 4.8 8.0 0.00 0.00 0.00 62 1004.7
20210518065315 11 309 11.3 11.3 0.00 0.00 0.00 62 1004.7
20210518064810 11 69 3.2 8.0 0.00 0.00 0.00 62 1004.7
20210518064313 11 289 11.3 16.1 0.00 0.00 0.00 62 1004.7
20210518063811 11 284 4.8 4.8 0.00 0.00 0.00 62 1004.7
20210518063313 11 329 0.0 0.0 0.00 0.00 0.00 62 1004.4
20210518062814 11 0 4.8 8.0 0.00 0.00 0.00 62 1004.7
20210518062315 11 311 0.0 0.0 0.00 0.00 0.00 62 1004.7
20210518061813 11 344 0.0 0.0 0.00 0.00 0.00 62 1004.7
20210518061315 11 294 6.4 8.0 0.00 0.00 0.00 62 1004.7
20210518060816 11 119 0.0 4.8 0.00 0.00 0.00 62 1004.7
20210518060315 11 16 4.8 8.0 0.00 0.00 0.00 62 1004.4
20210518055813 11 346 8.0 16.1 0.00 0.00 0.00 62 1004.7
20210518055315 11 322 0.0 0.0 0.00 0.00 0.00 62 1004.4
20210518054811 12 302 0.0 0.0 0.00 0.00 0.00 62 1004.4
20210518054313 12 88 0.0 0.0 0.00 0.00 0.00 62 1004.4
20210518053813 12 335 0.0 0.0 0.00 0.00 0.00 61 1004.4
20210518053313 12 216 0.0 4.8 0.00 0.00 0.00 61 1004.4
20210518052810 12 321 4.8 8.0 0.00 0.00 0.00 61 1004.7
20210518052314 12 321 3.2 4.8 0.00 0.00 0.00 61 1004.7
20210518051813 12 82 0.0 0.0 0.00 0.00 0.00 61 1004.7
20210518051316 12 73 11.3 16.1 0.00 0.00 0.00 61 1004.7
20210518050813 12 302 11.3 16.1 0.00 0.00 0.00 61 1004.4
20210518050314 12 17 1.6 4.8 0.00 0.00 0.00 60 1004.1
20210518045812 12 347 11.3 16.1 0.00 0.00 0.00 60 1004.1
20210518045313 12 57 9.7 16.1 0.00 0.00 0.00 60 1003.7
20210518044810 12 21 6.4 11.3 0.00 0.00 0.00 60 1003.7
20210518044315 13 18 8.0 16.1 0.00 0.00 0.00 59 1003.7
20210518043812 13 347 1.6 4.8 0.00 0.00 0.00 59 1003.7
20210518043313 13 0 3.2 4.8 0.00 0.00 0.00 59 1003.7
20210518042740 13 188 11.3 16.1 0.00 0.00 0.00 59 1003.4
20210518042311 13 257 6.4 11.3 0.00 0.00 0.00 58 1003.4
20210518041813 14 339 17.7 19.3 0.00 0.00 0.00 58 1003.4
20210518041315 14 20 4.8 8.0 0.00 0.00 0.00 58 1003.4
20210518040814 15 5 3.2 4.8 0.00 0.00 0.00 58 1003.4
20210518040315 15 294 4.8 8.0 0.00 0.00 0.00 57 1003.0
20210518035810 15 23 8.0 11.3 0.00 0.00 0.00 57 1003.4
20210518035315 15 33 4.8 8.0 0.00 0.00 0.00 57 1003.0
20210518034810 16 301 4.8 11.3 0.00 0.00 0.00 56 1003.0
20210518034316 16 349 4.8 4.8 0.00 0.00 0.00 56 1003.0
20210518033815 16 162 0.0 4.8 0.00 0.00 0.00 55 1003.0
20210518033315 17 285 1.6 4.8 0.00 0.00 0.00 55 1003.0
20210518032812 17 252 9.7 19.3 0.00 0.00 0.00 54 1002.7
20210518032313 18 14 6.4 11.3 0.00 0.00 0.00 54 1003.0
20210518031814 18 40 11.3 11.3 0.00 0.00 0.00 53 1003.0
20210518031313 20 85 1.6 4.8 0.00 0.00 0.00 51 1002.7
20210518030817 20 7 8.0 11.3 0.00 0.00 0.00 49 1002.4
20210518030313 21 29 4.8 8.0 0.00 0.00 0.00 47 1002.0
20210518025812 22 343 8.0 16.1 0.00 0.00 0.00 43 1002.0
20210518025314 22 324 6.4 8.0 0.00 0.00 0.00 41 1002.0
20210518024811 23 12 4.8 8.0 0.00 0.00 0.00 35 1001.7
20210518024312 23 344 8.0 11.3 0.00 0.00 0.00 20 1001.4
20210518023813 23 322 4.8 4.8 0.00 0.00 0.00 19 1001.4
20210518023314 24 276 0.0 0.0 0.00 0.00 0.00 19 1001.4
20210518022819 24 225 4.8 8.0 0.00 0.00 0.00 19 1001.0
20210518022315 24 269 3.2 4.8 0.00 0.00 0.00 19 1001.0
20210518021813 25 275 1.6 8.0 0.00 0.00 0.00 19 1001.0
20210518021320 25 232 0.0 4.8 0.00 0.00 0.00 18 1000.7
20210518020812 24 252 0.0 0.0 0.00 0.00 0.00 18 1001.0
20210518020317 24 233 0.0 0.0 0.00 0.00 0.00 18 1000.7
20210518015814 24 278 6.4 8.0 0.00 0.00 0.00 18 1000.7
20210518015313 24 232 0.0 0.0 0.00 0.00 0.00 18 1000.7
20210518014810 25 240 4.8 8.0 0.00 0.00 0.00 18 1000.7
20210518014314 25 239 6.4 11.3 0.00 0.00 0.00 18 1000.7
20210518013821 25 201 0.0 0.0 0.00 0.00 0.00 18 1000.7
20210518013310 26 238 0.0 4.8 0.00 0.00 0.00 17 1000.7
20210518012813 26 230 4.8 8.0 0.00 0.00 0.00 17 1000.7
20210518012313 26 192 0.0 0.0 0.00 0.00 0.00 16 1000.7
20210518011914 26 179 3.2 4.8 0.00 0.00 0.00 16 1000.7
20210518011313 26 238 0.0 0.0 0.00 0.00 0.00 16 1000.7
20210518010811 26 166 4.8 4.8 0.00 0.00 0.00 16 1000.7
20210518010315 26 173 0.0 4.8 0.00 0.00 0.00 15 1000.7
20210518005818 26 159 3.2 4.8 0.00 0.00 0.00 16 1000.7
20210518005315 26 172 0.0 0.0 0.00 0.00 0.00 15 1000.3
20210518004812 26 139 3.2 4.8 0.00 0.00 0.00 15 1000.7
20210518004415 26 257 1.6 4.8 0.00 0.00 0.00 15 1000.7
20210518003812 26 217 11.3 16.1 0.00 0.00 0.00 15 1000.3
20210518003314 26 219 6.4 11.3 0.00 0.00 0.00 15 1000.7
20210518002914 26 225 4.8 11.3 0.00 0.00 0.00 16 1000.7
20210518002314 26 137 0.0 4.8 0.00 0.00 0.00 16 1001.0
20210518001815 26 280 6.4 8.0 0.00 0.00 0.00 15 1000.7
20210518001318 26 227 12.9 16.1 0.00 0.00 0.00 15 1000.7
20210518000827 26 270 19.3 24.1 0.00 0.00 0.00 15 1000.7
20210518000415 26 231 4.8 8.0 0.00 0.00 0.00 15 1000.7
20210517235913 26 249 11.3 16.1 0.00 0.00 0.00 15 1000.7
20210517235312 26 221 14.5 27.4 0.00 0.00 0.00 14 1000.7
20210517234814 26 233 11.3 16.1 0.00 0.00 0.00 14 1000.7
20210517234312 26 195 4.8 8.0 0.00 0.00 0.00 14 1000.7
20210517233812 26 250 11.3 16.1 0.00 0.00 0.00 14 1001.0
20210517233315 26 257 6.4 8.0 0.00 0.00 0.00 15 1001.0
20210517232811 26 216 9.7 11.3 0.00 0.00 0.00 15 1000.7
20210517232315 26 200 11.3 11.3 0.00 0.00 0.00 14 1001.0
20210517231812 26 229 12.9 16.1 0.00 0.00 0.00 15 1001.0
20210517231312 26 268 19.3 24.1 0.00 0.00 0.00 14 1001.0
20210517230814 26 233 11.3 16.1 0.00 0.00 0.00 14 1001.0
20210517230316 26 246 12.9 16.1 0.00 0.00 0.00 15 1001.0
20210517225813 26 242 6.4 8.0 0.00 0.00 0.00 14 1001.0
20210517225315 26 170 8.0 11.3 0.00 0.00 0.00 15 1000.7
20210517224813 26 252 11.3 16.1 0.00 0.00 0.00 14 1001.0
20210517224315 26 266 12.9 16.1 0.00 0.00 0.00 14 1001.0
20210517223815 26 234 12.9 16.1 0.00 0.00 0.00 14 1001.0
20210517223317 26 170 4.8 8.0 0.00 0.00 0.00 15 1001.4
20210517222821 26 239 20.9 24.1 0.00 0.00 0.00 14 1001.0
20210517222314 26 253 16.1 19.3 0.00 0.00 0.00 14 1001.4
20210517221813 26 245 12.9 16.1 0.00 0.00 0.00 15 1001.0
20210517221316 26 275 27.4 35.4 0.00 0.00 0.00 14 1001.4
20210517220814 26 213 16.1 24.1 0.00 0.00 0.00 13 1001.0
20210517220314 26 232 3.2 4.8 0.00 0.00 0.00 14 1001.4
20210517215813 26 115 0.0 0.0 0.00 0.00 0.00 14 1001.4
20210517215313 26 297 8.0 11.3 0.00 0.00 0.00 14 1001.4
20210517214813 26 249 22.5 27.4 0.00 0.00 0.00 14 1001.4
20210517214320 26 260 9.7 16.1 0.00 0.00 0.00 15 1001.4
20210517213820 26 246 9.7 11.3 0.00 0.00 0.00 14 1001.4
20210517213316 26 282 9.7 11.3 0.00 0.00 0.00 15 1001.4
20210517212815 26 268 14.5 16.1 0.00 0.00 0.00 14 1001.4
20210517212316 26 263 4.8 4.8 0.00 0.00 0.00 14 1001.4
20210517211816 25 196 3.2 4.8 0.00 0.00 0.00 15 1001.4
20210517211313 25 193 17.7 24.1 0.00 0.00 0.00 14 1001.7
20210517210815 25 255 14.5 19.3 0.00 0.00 0.00 15 1001.7